{"data":{"norad_id":58366,"intl_designator":"2023-177R","name":"STARLINK-30892","alt_names":[],"object_type":"PAYLOAD","status":"ACTIVE","operator":null,"country":"US","launch_date":"2023-11-18","launch_site_code":"AFETR","launch_vehicle":null,"mission":null,"orbit_class":"UNKNOWN","rcs_meters":null,"size_class":null,"mass_kg":null,"dimensions":null,"purposes":["comms"],"wikipedia_slug":null,"has_3d_model":false,"image_url":null,"decayed_at":null,"tle_current":{"epoch":"2026-09-20T15:37:09.427584Z","epoch_age_seconds":130415,"freshness":"FRESH","line1":"1 58366U 23177R   26263.65080356  .00000137  00000+0  14502-4 0  9996","line2":"2 58366  43.0064 329.6173 0001983 285.5243  74.5390 15.27578661158053","mean_motion":15.27578661,"eccentricity":0.0001983,"inclination_deg":43.0064,"raan_deg":329.6173,"arg_perigee_deg":285.5243,"mean_anomaly_deg":74.539,"bstar":1.4502e-5,"rev_number":15805,"period_min":94.266831343227,"perigee_km":481.69253149237,"apogee_km":484.4136794882,"semimajor_km":6861.1901054903,"source":"CELESTRAK","updated_at":"2026-09-21T09:00:33.843973Z"}}}